This is the latest recevied weather packets stored in our database for station/object KY0TEQ-13. If no packets are shown the sender has not sent any weather packets the latest 10 day(s).
| Time | Temp. | Humidity | Pressure | Rain* | Wind** | Luminosity | Snow |
|---|---|---|---|---|---|---|---|
| 1788616817 | 15° C | 55% | 1310.8 hPa | 0 mm | - | 79 W/m² | - |
| 1788616513 | 14.44° C | 57% | 1310.6 hPa | 0 mm | - | 70 W/m² | - |
| 1788616208 | 13.89° C | 59% | 1310.7 hPa | 0 mm | - | 61 W/m² | - |
| 1788615908 | 13.33° C | 60% | 1310.5 hPa | 0 mm | - | 55 W/m² | - |
| 1788615607 | 12.78° C | 61% | 1310.5 hPa | 0 mm | - | 50 W/m² | - |
| 1788615302 | 12.78° C | 63% | 1310.5 hPa | 0 mm | - | 42 W/m² | - |
| 1788614995 | 12.22° C | 63% | 1310.2 hPa | 0 mm | - | 36 W/m² | - |
| 1788614690 | 12.22° C | 64% | 1310.2 hPa | 0 mm | - | 30 W/m² | - |
| 1788614385 | 11.67° C | 64% | 1310.4 hPa | 0 mm | - | 25 W/m² | - |
| 1788614082 | 11.11° C | 67% | 1310.1 hPa | 0 mm | - | 21 W/m² | - |
| 1788613782 | 10.56° C | 68% | 1310.4 hPa | 0 mm | - | 17 W/m² | - |
| 1788613481 | 10.56° C | 69% | 1310.2 hPa | 0 mm | - | 14 W/m² | - |
| 1788613181 | 10° C | 69% | 1310.1 hPa | 0 mm | - | 11 W/m² | - |
| 1788612876 | 10.56° C | 68% | 1310 hPa | 0 mm | - | 8 W/m² | - |
| 1788612571 | 11.67° C | 63% | 1309.7 hPa | 0 mm | - | 5 W/m² | - |
| 1788612268 | 11.67° C | 64% | 1309.9 hPa | 0 mm | - | 3 W/m² | - |
| 1788611968 | 11.67° C | 65% | 1309.6 hPa | 0 mm | - | 1 W/m² | - |
| 1788611665 | 12.22° C | 63% | 1309.7 hPa | 0 mm | - | 1 W/m² | - |
| 1788611360 | 12.22° C | 63% | 1309.4 hPa | 0 mm | - | 0 W/m² | - |
| 1788611059 | 12.22° C | 63% | 1309.6 hPa | 0 mm | - | 0 W/m² | - |
| 1788610755 | 11.11° C | 67% | 1309.3 hPa | 0 mm | - | 0 W/m² | - |
| 1788610450 | 11.67° C | 65% | 1309.3 hPa | 0 mm | - | 0 W/m² | - |
| 1788610144 | 12.22° C | 64% | 1309.1 hPa | 0 mm | - | 0 W/m² | - |
| 1788609843 | 11.67° C | 65% | 1309.3 hPa | 0 mm | - | 0 W/m² | - |
| 1788609538 | 11.11° C | 67% | 1309.1 hPa | 0 mm | - | 0 W/m² | - |
* Rain latest hour (hover to see other rain measurements)
** Current wind speed in m/s (hover to see current wind gust speed)